QPF
0.00 0.01 0.03 0.04 0.06 0.06 0.05 0.03 0.02 0.02 0.02 0.01 0.00 0.00 0.01 0.02 0.04 0.07 0.05 0.03 0.02 0.02 0.02 0.03 0.01 0.02 0.01 0.02 0.03 0.04 0.04 0.05 0.04 0.03 0.03 0.02 0.03 0.03 0.04 0.04 0.05 0.04 0.02 0.03 0.03 0.06 0.06 0.07 0.06
0.01 0.03 0.05 0.06 0.06 0.05 0.04 0.03 0.03 0.02 0.01 0.00 0.00 0.00 0.00 0.01 0.01 0.02 0.04 0.03 0.02 0.03 0.03 0.02 0.02 0.02 0.01 0.02 0.03 0.03 0.04 0.03 0.03 0.03 0.03 0.03 0.02 0.03 0.04 0.05 0.04 0.04 0.04 0.04 0.04 0.07 0.07 0.06 0.05
0.02 0.03 0.04 0.05 0.04 0.04 0.03 0.01 0.01 0.01 0.00 0.00 0.00 0.00 0.01 0.01 0.01 0.03 0.03 0.03 0.02 0.03 0.03 0.02 0.02 0.02 0.03 0.04 0.04 0.04 0.04 0.02 0.02 0.02 0.02 0.03 0.03 0.04 0.05 0.05 0.04 0.04 0.05 0.04 0.04 0.05 0.06 0.05 0.03
0.02 0.03 0.03 0.03 0.03 0.02 0.01 0.00 0.00 0.00 0.00 0.00 0.01 0.01 0.01 0.01 0.01 0.02 0.02 0.02 0.02 0.02 0.02 0.01 0.01 0.02 0.03 0.05 0.06 0.05 0.04 0.02 0.02 0.03 0.03 0.04 0.06 0.06 0.05 0.03 0.03 0.04 0.04 0.05 0.05 0.04 0.04 0.03 0.02
0.01 0.03 0.04 0.03 0.03 0.01 0.00 0.00 0.00 0.00 0.00 0.00 0.00 0.01 0.02 0.01 0.00 0.01 0.01 0.02 0.02 0.02 0.01 0.00 0.01 0.02 0.02 0.03 0.04 0.05 0.05 0.03 0.04 0.03 0.02 0.04 0.06 0.06 0.04 0.03 0.03 0.02 0.03 0.06 0.06 0.04 0.04 0.03 0.02
0.02 0.03 0.04 0.03 0.03 0.01 0.01 0.00 0.00 0.00 0.00 0.00 0.00 0.01 0.03 0.01 0.00 0.00 0.01 0.02 0.02 0.02 0.02 0.01 0.01 0.02 0.02 0.02 0.02 0.03 0.03 0.03 0.04 0.03 0.03 0.03 0.03 0.03 0.03 0.03 0.02 0.02 0.03 0.05 0.06 0.03 0.03 0.02 0.02
0.03 0.04 0.03 0.02 0.02 0.02 0.01 0.00 0.00 0.00 0.00 0.00 0.00 0.02 0.03 0.02 0.01 0.00 0.00 0.01 0.01 0.01 0.02 0.02 0.01 0.01 0.01 0.01 0.01 0.01 0.02 0.02 0.04 0.03 0.02 0.03 0.04 0.03 0.03 0.02 0.01 0.02 0.03 0.05 0.05 0.03 0.02 0.03 0.03
0.00 0.01 0.01 0.03 0.03 0.02 0.00 0.00 0.00 0.00 0.00 0.00 0.00 0.02 0.03 0.01 0.00 0.00 0.00 0.00 0.00 0.00 0.01 0.01 0.01 0.00 0.01 0.02 0.01 0.01 0.01 0.02 0.03 0.02 0.01 0.02 0.02 0.03 0.03 0.03 0.02 0.03 0.05 0.06 0.06 0.04 0.03 0.03 0.03
0.00 0.01 0.02 0.02 0.02 0.01 0.00 0.00 0.00 0.00 0.01 0.00 0.00 0.01 0.01 0.00 0.00 0.00 0.01 0.01 0.00 0.00 0.01 0.01 0.01 0.01 0.01 0.02 0.01 0.01 0.01 0.01 0.02 0.02 0.02 0.02 0.04 0.04 0.04 0.03 0.04 0.05 0.07 0.07 0.06 0.04 0.03 0.03 0.03
0.00 0.02 0.02 0.00 0.00 0.00 0.00 0.00 0.00 0.00 0.01 0.01 0.00 0.00 0.00 0.00 0.00 0.01 0.02 0.02 0.01 0.01 0.00 0.00 0.00 0.01 0.01 0.02 0.02 0.02 0.02 0.02 0.02 0.02 0.02 0.03 0.03 0.04 0.04 0.03 0.04 0.05 0.06 0.05 0.04 0.05 0.04 0.04 0.05
0.00 0.00 0.00 0.00 0.00 0.00 0.00 0.00 0.00 0.00 0.01 0.01 0.01 0.00 0.00 0.00 0.00 0.01 0.00 0.00 0.01 0.01 0.00 0.00 0.00 0.00 0.01 0.02 0.02 0.03 0.03 0.04 0.03 0.02 0.02 0.02 0.02 0.03 0.04 0.04 0.03 0.04 0.05 0.05 0.04 0.04 0.04 0.03 0.04
0.00 0.00 0.00 0.00 0.00 0.00 0.00 0.00 0.00 0.00 0.00 0.00 0.00 0.00 0.00 0.01 0.01 0.01 0.01 0.00 0.01 0.02 0.01 0.00 0.00 0.00 0.00 0.01 0.02 0.02 0.02 0.03 0.04 0.02 0.01 0.02 0.03 0.04 0.04 0.03 0.03 0.04 0.06 0.06 0.04 0.03 0.02 0.02 0.02
0.00 0.00 0.00 0.00 0.00 0.00 0.00 0.00 0.00 0.00 0.00 0.00 0.00 0.00 0.00 0.00 0.00 0.00 0.01 0.01 0.01 0.01 0.01 0.00 0.00 0.00 0.01 0.01 0.02 0.01 0.02 0.03 0.03 0.02 0.01 0.01 0.01 0.02 0.03 0.02 0.03 0.04 0.06 0.07 0.05 0.04 0.02 0.01 0.01
0.00 0.00 0.00 0.00 0.00 0.00 0.00 0.00 0.01 0.01 0.00 0.00 0.00 0.01 0.00 0.00 0.00 0.00 0.00 0.01 0.01 0.02 0.02 0.01 0.00 0.00 0.01 0.01 0.02 0.02 0.01 0.02 0.02 0.02 0.01 0.01 0.01 0.01 0.02 0.02 0.02 0.03 0.04 0.05 0.04 0.03 0.03 0.04 0.03
0.00 0.00 0.00 0.00 0.00 0.00 0.01 0.02 0.02 0.01 0.01 0.01 0.01 0.02 0.01 0.00 0.00 0.00 0.00 0.00 0.01 0.01 0.02 0.01 0.01 0.01 0.01 0.01 0.02 0.01 0.01 0.01 0.01 0.01 0.01 0.01 0.01 0.01 0.01 0.02 0.03 0.03 0.03 0.03 0.03 0.03 0.04 0.04 0.04
0.00 0.01 0.02 0.01 0.00 0.00 0.02 0.04 0.03 0.01 0.01 0.01 0.01 0.01 0.01 0.01 0.00 0.00 0.00 0.00 0.00 0.01 0.01 0.01 0.01 0.01 0.01 0.01 0.01 0.01 0.01 0.02 0.02 0.01 0.02 0.01 0.01 0.01 0.01 0.01 0.02 0.02 0.03 0.03 0.04 0.03 0.05 0.05 0.06
0.02 0.03 0.03 0.01 0.00 0.00 0.01 0.02 0.01 0.01 0.00 0.00 0.00 0.00 0.00 0.00 0.00 0.00 0.00 0.00 0.00 0.01 0.01 0.01 0.01 0.00 0.00 0.01 0.01 0.01 0.01 0.02 0.02 0.02 0.02 0.02 0.01 0.01 0.01 0.01 0.01 0.02 0.02 0.03 0.03 0.03 0.04 0.06 0.07
0.02 0.01 0.01 0.01 0.00 0.00 0.00 0.01 0.01 0.00 0.00 0.00 0.00 0.00 0.00 0.00 0.00 0.00 0.00 0.00 0.00 0.01 0.01 0.01 0.01 0.01 0.00 0.00 0.01 0.01 0.01 0.02 0.02 0.02 0.03 0.03 0.02 0.01 0.01 0.01 0.01 0.02 0.03 0.03 0.03 0.03 0.04 0.05 0.06
0.00 0.00 0.01 0.00 0.00 0.00 0.00 0.01 0.01 0.01 0.00 0.00 0.00 0.00 0.00 0.00 0.00 0.00 0.00 0.00 0.00 0.01 0.01 0.02 0.02 0.01 0.01 0.01 0.01 0.01 0.02 0.03 0.03 0.03 0.03 0.03 0.02 0.02 0.02 0.02 0.02 0.02 0.03 0.02 0.02 0.03 0.03 0.03 0.04
0.00 0.00 0.01 0.00 0.00 0.00 0.00 0.00 0.00 0.00 0.00 0.00 0.01 0.00 0.00 0.00 0.00 0.00 0.00 0.00 0.00 0.01 0.02 0.02 0.02 0.01 0.01 0.01 0.01 0.01 0.01 0.02 0.03 0.04 0.03 0.03 0.02 0.02 0.02 0.02 0.02 0.03 0.04 0.04 0.04 0.04 0.05 0.04 0.04
0.00 0.00 0.00 0.00 0.00 0.00 0.00 0.01 0.01 0.00 0.00 0.00 0.00 0.00 0.00 0.00 0.00 0.00 0.00 0.00 0.00 0.01 0.02 0.03 0.03 0.02 0.01 0.01 0.01 0.01 0.03 0.03 0.04 0.03 0.03 0.03 0.03 0.03 0.02 0.03 0.03 0.04 0.05 0.04 0.05 0.05 0.06 0.06 0.04
0.00 0.00 0.00 0.00 0.01 0.01 0.01 0.02 0.01 0.01 0.00 0.00 0.00 0.00 0.00 0.00 0.00 0.00 0.00 0.00 0.01 0.01 0.02 0.03 0.04 0.03 0.02 0.01 0.01 0.02 0.03 0.04 0.04 0.03 0.02 0.02 0.01 0.01 0.02 0.04 0.04 0.05 0.05 0.04 0.03 0.03 0.05 0.05 0.05
0.00 0.00 0.00 0.01 0.01 0.02 0.01 0.02 0.01 0.01 0.01 0.00 0.00 0.00 0.00 0.00 0.00 0.00 0.00 0.01 0.01 0.01 0.02 0.03 0.06 0.04 0.02 0.02 0.02 0.02 0.04 0.03 0.03 0.02 0.01 0.01 0.01 0.02 0.03 0.03 0.03 0.04 0.04 0.03 0.03 0.02 0.03 0.05 0.05
0.00 0.00 0.00 0.01 0.01 0.02 0.01 0.01 0.01 0.01 0.00 0.01 0.00 0.00 0.00 0.00 0.00 0.01 0.01 0.00 0.01 0.01 0.02 0.03 0.07 0.07 0.04 0.03 0.02 0.02 0.03 0.02 0.02 0.02 0.02 0.01 0.01 0.02 0.03 0.03 0.02 0.02 0.03 0.03 0.03 0.02 0.02 0.03 0.04
0.00 0.01 0.01 0.02 0.02 0.01 0.01 0.01 0.01 0.00 0.00 0.00 0.00 0.00 0.00 0.00 0.00 0.01 0.01 0.01 0.00 0.00 0.01 0.02 0.05 0.08 0.06 0.04 0.03 0.02 0.01 0.01 0.01 0.01 0.01 0.01 0.01 0.01 0.01 0.02 0.01 0.01 0.02 0.02 0.02 0.02 0.02 0.02 0.03
0.00 0.00 0.01 0.02 0.02 0.01 0.01 0.01 0.00 0.00 0.00 0.00 0.00 0.00 0.00 0.00 0.01 0.01 0.01 0.02 0.01 0.01 0.01 0.02 0.04 0.07 0.08 0.05 0.03 0.02 0.02 0.01 0.01 0.01 0.01 0.01 0.01 0.01 0.01 0.01 0.01 0.01 0.01 0.01 0.01 0.01 0.01 0.01 0.02
0.00 0.00 0.00 0.01 0.01 0.00 0.00 0.00 0.00 0.00 0.00 0.00 0.00 0.00 0.00 0.00 0.00 0.00 0.01 0.01 0.02 0.01 0.01 0.01 0.03 0.05 0.07 0.06 0.04 0.03 0.03 0.01 0.00 0.00 0.00 0.01 0.01 0.01 0.01 0.01 0.01 0.01 0.01 0.01 0.01 0.01 0.01 0.01 0.02
0.00 0.00 0.01 0.01 0.01 0.01 0.00 0.00 0.00 0.00 0.00 0.00 0.00 0.00 0.00 0.00 0.00 0.00 0.00 0.01 0.01 0.01 0.01 0.01 0.02 0.04 0.06 0.07 0.05 0.04 0.03 0.02 0.01 0.01 0.00 0.01 0.01 0.01 0.01 0.01 0.01 0.01 0.01 0.01 0.01 0.01 0.01 0.00 0.01
0.00 0.00 0.01 0.01 0.01 0.01 0.01 0.01 0.00 0.00 0.00 0.00 0.00 0.00 0.00 0.00 0.00 0.00 0.01 0.01 0.01 0.01 0.01 0.01 0.01 0.03 0.06 0.07 0.07 0.04 0.03 0.02 0.02 0.01 0.01 0.02 0.02 0.01 0.01 0.01 0.01 0.02 0.01 0.01 0.01 0.01 0.01 0.01 0.01
0.00 0.00 0.00 0.01 0.01 0.01 0.01 0.01 0.00 0.00 0.00 0.00 0.00 0.00 0.00 0.00 0.00 0.01 0.01 0.01 0.01 0.01 0.01 0.01 0.01 0.02 0.03 0.05 0.07 0.06 0.04 0.03 0.02 0.02 0.01 0.02 0.02 0.01 0.01 0.01 0.01 0.01 0.01 0.01 0.01 0.01 0.01 0.02 0.02
MSLP
1005.88 1006.55 1007.42 1008.38 1009.28 1010.02 1010.50 1010.69 1010.62 1010.37 1010.04 1009.73 1009.54 1009.51 1009.61 1009.81 1010.03 1010.21 1010.31 1010.32 1010.27 1010.22 1010.21 1010.30 1010.49 1010.75 1011.04 1011.30 1011.47 1011.52 1011.47 1011.34 1011.19 1011.09 1011.07 1011.14 1011.29 1011.49 1011.68 1011.81 1011.87 1011.86 1011.79 1011.70 1011.64 1011.64 1011.70 1011.82 1011.99
1006.24 1007.03 1007.95 1008.87 1009.68 1010.26 1010.55 1010.55 1010.30 1009.90 1009.47 1009.12 1008.94 1008.93 1009.08 1009.33 1009.59 1009.81 1009.94 1009.98 1009.97 1009.97 1010.03 1010.19 1010.46 1010.80 1011.15 1011.45 1011.64 1011.70 1011.64 1011.50 1011.34 1011.23 1011.20 1011.27 1011.43 1011.62 1011.80 1011.92 1011.97 1011.93 1011.85 1011.77 1011.71 1011.72 1011.80 1011.94 1012.12
1006.77 1007.62 1008.54 1009.39 1010.06 1010.45 1010.53 1010.32 1009.90 1009.37 1008.87 1008.50 1008.33 1008.35 1008.54 1008.83 1009.12 1009.36 1009.51 1009.58 1009.61 1009.66 1009.79 1010.03 1010.38 1010.80 1011.22 1011.56 1011.79 1011.87 1011.82 1011.68 1011.52 1011.40 1011.36 1011.41 1011.54 1011.71 1011.86 1011.96 1011.98 1011.94 1011.87 1011.79 1011.76 1011.80 1011.91 1012.08 1012.29
1007.41 1008.29 1009.16 1009.90 1010.39 1010.59 1010.47 1010.08 1009.52 1008.90 1008.36 1007.99 1007.83 1007.89 1008.10 1008.40 1008.70 1008.93 1009.07 1009.15 1009.21 1009.31 1009.50 1009.82 1010.25 1010.74 1011.22 1011.63 1011.90 1012.01 1011.99 1011.86 1011.70 1011.58 1011.52 1011.54 1011.64 1011.76 1011.88 1011.94 1011.95 1011.91 1011.85 1011.80 1011.80 1011.88 1012.03 1012.23 1012.45
1008.09 1008.95 1009.73 1010.33 1010.66 1010.68 1010.39 1009.87 1009.22 1008.57 1008.02 1007.66 1007.53 1007.60 1007.82 1008.10 1008.36 1008.56 1008.68 1008.74 1008.81 1008.94 1009.18 1009.56 1010.05 1010.61 1011.15 1011.61 1011.93 1012.09 1012.10 1012.00 1011.86 1011.74 1011.66 1011.66 1011.72 1011.80 1011.87 1011.90 1011.89 1011.86 1011.81 1011.80 1011.84 1011.96 1012.14 1012.36 1012.60
1008.71 1009.51 1010.18 1010.64 1010.81 1010.69 1010.29 1009.70 1009.03 1008.38 1007.87 1007.55 1007.44 1007.52 1007.71 1007.94 1008.14 1008.27 1008.34 1008.37 1008.42 1008.56 1008.83 1009.25 1009.78 1010.38 1010.97 1011.47 1011.84 1012.04 1012.10 1012.05 1011.94 1011.83 1011.76 1011.74 1011.77 1011.81 1011.84 1011.85 1011.83 1011.80 1011.78 1011.80 1011.88 1012.02 1012.22 1012.45 1012.69
1009.19 1009.89 1010.44 1010.75 1010.80 1010.58 1010.13 1009.54 1008.90 1008.32 1007.87 1007.61 1007.52 1007.58 1007.73 1007.89 1008.00 1008.05 1008.05 1008.03 1008.06 1008.19 1008.47 1008.90 1009.45 1010.07 1010.67 1011.20 1011.60 1011.85 1011.96 1011.96 1011.90 1011.84 1011.79 1011.77 1011.78 1011.80 1011.82 1011.81 1011.79 1011.77 1011.77 1011.81 1011.91 1012.07 1012.27 1012.50 1012.71
1009.47 1010.05 1010.47 1010.66 1010.61 1010.34 1009.90 1009.35 1008.79 1008.30 1007.94 1007.73 1007.67 1007.70 1007.79 1007.87 1007.89 1007.86 1007.78 1007.71 1007.71 1007.83 1008.10 1008.52 1009.07 1009.67 1010.28 1010.81 1011.22 1011.51 1011.67 1011.73 1011.74 1011.73 1011.73 1011.74 1011.77 1011.79 1011.80 1011.80 1011.78 1011.77 1011.79 1011.85 1011.97 1012.12 1012.31 1012.51 1012.70
1009.55 1010.00 1010.28 1010.37 1010.26 1009.97 1009.57 1009.10 1008.64 1008.26 1007.99 1007.83 1007.78 1007.78 1007.80 1007.80 1007.74 1007.62 1007.49 1007.39 1007.37 1007.47 1007.73 1008.13 1008.65 1009.23 1009.80 1010.31 1010.73 1011.04 1011.25 1011.38 1011.47 1011.53 1011.60 1011.66 1011.72 1011.78 1011.80 1011.82 1011.82 1011.83 1011.87 1011.94 1012.06 1012.21 1012.37 1012.54 1012.69
1009.47 1009.79 1009.95 1009.95 1009.79 1009.52 1009.16 1008.79 1008.44 1008.15 1007.95 1007.83 1007.77 1007.74 1007.69 1007.61 1007.48 1007.32 1007.15 1007.03 1007.01 1007.11 1007.36 1007.74 1008.22 1008.75 1009.28 1009.77 1010.18 1010.50 1010.76 1010.96 1011.12 1011.27 1011.42 1011.56 1011.68 1011.78 1011.84 1011.89 1011.92 1011.96 1012.02 1012.10 1012.22 1012.35 1012.50 1012.63 1012.74
1009.30 1009.50 1009.56 1009.48 1009.30 1009.04 1008.74 1008.45 1008.18 1007.97 1007.82 1007.71 1007.63 1007.54 1007.43 1007.29 1007.11 1006.91 1006.74 1006.63 1006.62 1006.74 1006.98 1007.34 1007.79 1008.28 1008.76 1009.22 1009.61 1009.96 1010.25 1010.52 1010.77 1011.01 1011.24 1011.46 1011.65 1011.81 1011.93 1012.02 1012.09 1012.16 1012.25 1012.35 1012.47 1012.60 1012.72 1012.83 1012.92
1009.13 1009.23 1009.20 1009.07 1008.87 1008.62 1008.37 1008.13 1007.92 1007.75 1007.61 1007.48 1007.36 1007.22 1007.05 1006.85 1006.64 1006.43 1006.27 1006.18 1006.20 1006.34 1006.59 1006.95 1007.37 1007.83 1008.28 1008.71 1009.11 1009.47 1009.81 1010.13 1010.46 1010.78 1011.09 1011.39 1011.65 1011.88 1012.06 1012.20 1012.32 1012.44 1012.55 1012.68 1012.82 1012.95 1013.07 1013.18 1013.25
1009.04 1009.06 1008.97 1008.79 1008.57 1008.34 1008.11 1007.90 1007.71 1007.54 1007.39 1007.23 1007.06 1006.85 1006.62 1006.38 1006.14 1005.93 1005.78 1005.72 1005.77 1005.94 1006.21 1006.57 1006.98 1007.42 1007.87 1008.30 1008.70 1009.09 1009.47 1009.85 1010.24 1010.63 1011.01 1011.37 1011.70 1011.99 1012.23 1012.43 1012.60 1012.76 1012.92 1013.08 1013.25 1013.40 1013.53 1013.64 1013.73
1009.08 1009.04 1008.90 1008.70 1008.46 1008.23 1008.01 1007.81 1007.62 1007.44 1007.25 1007.04 1006.80 1006.54 1006.26 1005.98 1005.72 1005.50 1005.36 1005.32 1005.38 1005.56 1005.85 1006.21 1006.64 1007.09 1007.55 1008.00 1008.44 1008.86 1009.29 1009.72 1010.15 1010.58 1011.01 1011.42 1011.79 1012.12 1012.41 1012.66 1012.89 1013.10 1013.31 1013.51 1013.71 1013.89 1014.06 1014.19 1014.30
1009.24 1009.16 1008.99 1008.77 1008.54 1008.30 1008.08 1007.88 1007.68 1007.47 1007.24 1006.99 1006.70 1006.40 1006.08 1005.76 1005.47 1005.24 1005.08 1005.03 1005.09 1005.26 1005.55 1005.92 1006.36 1006.84 1007.34 1007.83 1008.32 1008.80 1009.27 1009.73 1010.19 1010.64 1011.08 1011.50 1011.90 1012.26 1012.58 1012.88 1013.16 1013.42 1013.67 1013.92 1014.16 1014.38 1014.58 1014.75 1014.90
1009.47 1009.36 1009.19 1008.97 1008.74 1008.52 1008.31 1008.10 1007.88 1007.66 1007.40 1007.12 1006.81 1006.48 1006.14 1005.80 1005.48 1005.22 1005.02 1004.93 1004.96 1005.10 1005.36 1005.73 1006.19 1006.70 1007.25 1007.81 1008.36 1008.89 1009.40 1009.88 1010.35 1010.79 1011.22 1011.63 1012.01 1012.38 1012.73 1013.06 1013.37 1013.68 1013.97 1014.26 1014.54 1014.80 1015.03 1015.25 1015.44
1009.70 1009.59 1009.43 1009.23 1009.03 1008.83 1008.63 1008.43 1008.22 1007.98 1007.72 1007.44 1007.14 1006.81 1006.46 1006.11 1005.78 1005.47 1005.23 1005.08 1005.04 1005.12 1005.34 1005.69 1006.16 1006.70 1007.31 1007.93 1008.54 1009.12 1009.66 1010.15 1010.60 1011.01 1011.40 1011.77 1012.13 1012.48 1012.83 1013.18 1013.53 1013.87 1014.20 1014.52 1014.82 1015.11 1015.37 1015.62 1015.85
1009.86 1009.77 1009.64 1009.49 1009.34 1009.17 1009.00 1008.82 1008.61 1008.39 1008.15 1007.90 1007.62 1007.32 1007.01 1006.68 1006.34 1006.01 1005.71 1005.48 1005.36 1005.36 1005.52 1005.83 1006.29 1006.86 1007.50 1008.18 1008.85 1009.47 1010.03 1010.51 1010.92 1011.28 1011.61 1011.92 1012.23 1012.56 1012.90 1013.26 1013.63 1013.99 1014.34 1014.68 1015.00 1015.30 1015.58 1015.85 1016.11
1009.90 1009.85 1009.78 1009.70 1009.61 1009.50 1009.36 1009.20 1009.01 1008.81 1008.61 1008.39 1008.18 1007.94 1007.69 1007.40 1007.08 1006.74 1006.40 1006.11 1005.90 1005.82 1005.89 1006.15 1006.58 1007.16 1007.83 1008.54 1009.25 1009.90 1010.46 1010.91 1011.28 1011.57 1011.83 1012.08 1012.34 1012.63 1012.96 1013.32 1013.70 1014.07 1014.43 1014.77 1015.09 1015.38 1015.66 1015.94 1016.22
1009.81 1009.83 1009.85 1009.86 1009.84 1009.79 1009.69 1009.54 1009.37 1009.19 1009.01 1008.85 1008.70 1008.55 1008.38 1008.17 1007.90 1007.58 1007.23 1006.89 1006.60 1006.44 1006.44 1006.63 1007.02 1007.57 1008.25 1008.98 1009.70 1010.35 1010.90 1011.32 1011.63 1011.86 1012.05 1012.23 1012.44 1012.70 1013.02 1013.38 1013.76 1014.14 1014.50 1014.82 1015.12 1015.39 1015.65 1015.92 1016.21
1009.62 1009.74 1009.87 1009.98 1010.05 1010.05 1009.97 1009.83 1009.64 1009.46 1009.29 1009.17 1009.09 1009.03 1008.96 1008.85 1008.67 1008.40 1008.07 1007.71 1007.39 1007.16 1007.09 1007.21 1007.54 1008.05 1008.70 1009.42 1010.13 1010.77 1011.29 1011.68 1011.95 1012.12 1012.25 1012.38 1012.55 1012.78 1013.09 1013.44 1013.82 1014.20 1014.55 1014.86 1015.12 1015.36 1015.59 1015.83 1016.12
1009.40 1009.64 1009.90 1010.12 1010.26 1010.30 1010.22 1010.06 1009.83 1009.61 1009.43 1009.32 1009.29 1009.31 1009.34 1009.35 1009.27 1009.10 1008.83 1008.50 1008.16 1007.89 1007.76 1007.81 1008.07 1008.53 1009.13 1009.81 1010.49 1011.10 1011.59 1011.95 1012.17 1012.30 1012.39 1012.49 1012.64 1012.86 1013.15 1013.51 1013.89 1014.27 1014.61 1014.90 1015.13 1015.32 1015.51 1015.72 1015.99
1009.21 1009.60 1009.98 1010.31 1010.52 1010.58 1010.48 1010.26 1009.96 1009.67 1009.43 1009.30 1009.29 1009.37 1009.50 1009.62 1009.67 1009.61 1009.43 1009.15 1008.84 1008.56 1008.38 1008.37 1008.55 1008.93 1009.46 1010.08 1010.71 1011.28 1011.74 1012.07 1012.27 1012.38 1012.46 1012.54 1012.68 1012.90 1013.20 1013.56 1013.95 1014.33 1014.67 1014.93 1015.14 1015.30 1015.44 1015.62 1015.85
1009.12 1009.64 1010.15 1010.57 1010.83 1010.89 1010.75 1010.45 1010.05 1009.66 1009.34 1009.16 1009.13 1009.25 1009.46 1009.68 1009.86 1009.92 1009.85 1009.66 1009.39 1009.11 1008.90 1008.83 1008.94 1009.23 1009.67 1010.21 1010.77 1011.29 1011.72 1012.03 1012.22 1012.34 1012.41 1012.50 1012.65 1012.88 1013.19 1013.57 1013.98 1014.36 1014.70 1014.96 1015.15 1015.28 1015.40 1015.53 1015.73
1009.16 1009.80 1010.41 1010.89 1011.17 1011.22 1011.02 1010.63 1010.13 1009.62 1009.21 1008.95 1008.90 1009.03 1009.29 1009.61 1009.90 1010.08 1010.12 1010.02 1009.81 1009.55 1009.33 1009.20 1009.22 1009.41 1009.75 1010.19 1010.68 1011.15 1011.54 1011.83 1012.03 1012.15 1012.24 1012.35 1012.52 1012.77 1013.11 1013.51 1013.93 1014.34 1014.69 1014.97 1015.16 1015.29 1015.38 1015.48 1015.64
1009.31 1010.02 1010.70 1011.22 1011.51 1011.52 1011.27 1010.80 1010.20 1009.58 1009.08 1008.75 1008.66 1008.78 1009.08 1009.47 1009.86 1010.15 1010.31 1010.30 1010.15 1009.92 1009.67 1009.49 1009.43 1009.52 1009.75 1010.09 1010.48 1010.88 1011.24 1011.51 1011.71 1011.85 1011.97 1012.10 1012.30 1012.57 1012.93 1013.35 1013.81 1014.25 1014.63 1014.94 1015.16 1015.30 1015.39 1015.47 1015.60
1009.53 1010.27 1010.96 1011.49 1011.76 1011.75 1011.44 1010.91 1010.24 1009.55 1008.98 1008.60 1008.47 1008.59 1008.91 1009.36 1009.82 1010.21 1010.46 1010.54 1010.45 1010.25 1010.00 1009.77 1009.63 1009.61 1009.72 1009.95 1010.25 1010.58 1010.88 1011.13 1011.33 1011.48 1011.61 1011.77 1011.99 1012.29 1012.67 1013.12 1013.61 1014.09 1014.52 1014.88 1015.14 1015.32 1015.43 1015.51 1015.61
1009.76 1010.48 1011.14 1011.63 1011.87 1011.82 1011.49 1010.92 1010.22 1009.51 1008.90 1008.50 1008.35 1008.47 1008.82 1009.30 1009.83 1010.30 1010.63 1010.78 1010.76 1010.59 1010.34 1010.07 1009.86 1009.75 1009.76 1009.87 1010.07 1010.31 1010.55 1010.77 1010.94 1011.09 1011.24 1011.41 1011.64 1011.95 1012.35 1012.83 1013.35 1013.87 1014.37 1014.79 1015.11 1015.35 1015.50 1015.59 1015.68
1009.94 1010.58 1011.16 1011.58 1011.78 1011.70 1011.36 1010.80 1010.11 1009.41 1008.81 1008.42 1008.28 1008.42 1008.78 1009.29 1009.87 1010.40 1010.80 1011.03 1011.07 1010.95 1010.72 1010.44 1010.18 1009.99 1009.90 1009.92 1010.01 1010.16 1010.33 1010.49 1010.63 1010.76 1010.90 1011.06 1011.29 1011.61 1012.02 1012.51 1013.06 1013.63 1014.18 1014.67 1015.07 1015.37 1015.57 1015.70 1015.78
1010.05 1010.56 1011.02 1011.35 1011.49 1011.38 1011.04 1010.51 1009.86 1009.21 1008.66 1008.31 1008.20 1008.35 1008.73 1009.27 1009.88 1010.46 1010.93 1011.23 1011.35 1011.30 1011.11 1010.85 1010.57 1010.34 1010.18 1010.11 1010.11 1010.17 1010.26 1010.35 1010.44 1010.53 1010.64 1010.78 1010.99 1011.30 1011.70 1012.20 1012.77 1013.37 1013.98 1014.53 1015.00 1015.37 1015.63 1015.79 1015.89
Thickness
5806 5810 5809 5796 5772 5754 5747 5756 5765 5765 5767 5775 5777 5772 5761 5754 5746 5735 5756 5768 5769 5767 5763 5759 5758 5757 5757 5756 5756 5756 5755 5755 5755 5755 5755 5755 5755 5755 5755 5756 5756 5757 5757 5757 5757 5757 5758 5757 5757
5808 5812 5801 5783 5758 5739 5742 5758 5759 5763 5772 5779 5777 5772 5763 5756 5760 5757 5760 5766 5768 5766 5762 5758 5756 5755 5754 5754 5753 5753 5753 5752 5752 5752 5752 5752 5752 5752 5752 5753 5753 5753 5753 5753 5754 5754 5754 5754 5754
5808 5809 5788 5770 5755 5744 5744 5759 5763 5771 5779 5777 5771 5769 5760 5753 5758 5758 5762 5767 5767 5764 5759 5755 5754 5753 5752 5751 5750 5750 5750 5749 5749 5749 5749 5749 5749 5749 5749 5749 5749 5749 5749 5750 5750 5750 5750 5751 5751
5804 5795 5783 5762 5750 5757 5760 5765 5770 5769 5773 5777 5770 5759 5758 5763 5761 5762 5766 5767 5764 5761 5757 5753 5751 5750 5749 5748 5748 5747 5747 5746 5746 5746 5746 5746 5745 5745 5745 5745 5746 5746 5746 5746 5746 5747 5747 5747 5748
5801 5780 5761 5750 5751 5761 5769 5772 5773 5765 5764 5768 5765 5750 5747 5760 5765 5766 5765 5765 5761 5759 5756 5751 5749 5748 5746 5746 5745 5744 5744 5743 5743 5743 5742 5742 5742 5742 5742 5742 5742 5742 5742 5743 5743 5743 5743 5744 5744
5784 5774 5749 5741 5748 5760 5768 5774 5772 5765 5764 5766 5762 5750 5745 5759 5761 5762 5764 5762 5761 5758 5755 5750 5748 5745 5744 5743 5742 5741 5741 5740 5740 5740 5739 5739 5739 5739 5739 5738 5739 5739 5739 5739 5739 5739 5739 5740 5741
5775 5762 5749 5748 5746 5751 5763 5774 5767 5761 5758 5761 5765 5749 5746 5754 5760 5763 5762 5761 5760 5757 5754 5750 5747 5744 5742 5741 5740 5739 5738 5738 5737 5737 5737 5736 5736 5736 5735 5735 5735 5735 5735 5735 5735 5735 5736 5736 5737
5786 5767 5752 5750 5745 5746 5764 5770 5769 5763 5758 5768 5766 5747 5741 5752 5761 5762 5760 5759 5757 5756 5754 5751 5748 5745 5742 5740 5738 5737 5736 5736 5735 5735 5734 5734 5733 5733 5732 5732 5731 5731 5731 5731 5732 5732 5732 5733 5733
5790 5759 5743 5747 5748 5751 5765 5763 5766 5770 5763 5761 5761 5755 5754 5759 5760 5756 5753 5752 5752 5752 5752 5750 5748 5746 5743 5740 5737 5735 5734 5734 5733 5732 5732 5731 5731 5730 5729 5728 5728 5727 5728 5728 5728 5728 5729 5729 5730
5777 5749 5749 5764 5765 5760 5763 5762 5763 5759 5752 5750 5752 5755 5757 5757 5754 5749 5747 5745 5745 5745 5747 5748 5747 5745 5742 5739 5736 5734 5733 5732 5731 5731 5730 5729 5729 5728 5726 5725 5724 5724 5724 5724 5724 5724 5725 5725 5726
5775 5759 5764 5769 5772 5768 5762 5761 5765 5753 5742 5745 5745 5748 5752 5752 5750 5748 5746 5745 5744 5744 5744 5746 5746 5744 5741 5738 5735 5733 5732 5730 5730 5729 5728 5728 5726 5725 5723 5722 5720 5720 5720 5720 5721 5721 5721 5722 5723
5771 5768 5770 5768 5772 5767 5762 5761 5756 5751 5748 5755 5755 5754 5751 5749 5747 5746 5745 5744 5743 5742 5741 5744 5744 5742 5740 5737 5734 5732 5730 5729 5727 5727 5726 5725 5723 5722 5720 5719 5718 5717 5717 5717 5717 5717 5718 5719 5719
5767 5766 5770 5771 5769 5766 5762 5756 5752 5749 5756 5758 5756 5752 5748 5747 5747 5747 5747 5745 5743 5740 5740 5741 5741 5740 5738 5735 5733 5731 5728 5727 5726 5724 5724 5722 5720 5719 5717 5716 5715 5714 5713 5713 5713 5713 5714 5714 5715
5769 5768 5767 5767 5766 5764 5756 5753 5750 5747 5755 5753 5750 5747 5747 5746 5746 5744 5744 5742 5741 5739 5739 5740 5740 5738 5736 5733 5731 5729 5727 5725 5724 5722 5721 5719 5718 5716 5714 5712 5711 5710 5709 5709 5709 5708 5708 5708 5708
5773 5760 5757 5761 5762 5761 5755 5740 5745 5751 5753 5748 5746 5745 5743 5744 5744 5742 5742 5741 5740 5739 5739 5738 5737 5736 5734 5731 5729 5727 5725 5723 5721 5719 5718 5717 5715 5713 5711 5709 5707 5706 5706 5705 5704 5704 5703 5703 5703
5763 5750 5739 5754 5761 5760 5746 5726 5743 5753 5749 5743 5743 5742 5740 5741 5742 5742 5741 5740 5739 5738 5737 5736 5736 5733 5731 5729 5726 5725 5722 5720 5718 5716 5715 5713 5712 5710 5707 5705 5703 5703 5702 5701 5699 5698 5697 5696 5696
5747 5737 5738 5748 5760 5757 5744 5731 5743 5752 5747 5741 5741 5741 5739 5738 5739 5740 5740 5738 5737 5736 5735 5733 5732 5730 5728 5726 5724 5721 5719 5716 5714 5712 5711 5710 5708 5706 5704 5701 5700 5699 5697 5696 5696 5693 5692 5691 5691
5736 5740 5741 5742 5754 5752 5741 5737 5743 5749 5746 5742 5741 5739 5737 5735 5735 5737 5737 5735 5734 5732 5732 5730 5728 5727 5725 5722 5720 5717 5715 5712 5710 5708 5707 5706 5704 5703 5700 5698 5696 5695 5693 5691 5690 5689 5689 5687 5687
5750 5744 5740 5747 5757 5748 5738 5737 5741 5745 5742 5739 5738 5737 5735 5733 5735 5735 5733 5731 5729 5728 5726 5724 5722 5722 5720 5717 5713 5710 5707 5707 5706 5705 5703 5702 5701 5699 5697 5695 5693 5691 5689 5687 5687 5686 5684 5683 5684
5749 5741 5739 5746 5756 5747 5738 5735 5742 5743 5741 5739 5737 5735 5733 5731 5729 5727 5726 5725 5723 5721 5721 5719 5717 5716 5715 5712 5710 5708 5705 5703 5701 5700 5699 5698 5697 5695 5694 5691 5689 5688 5686 5684 5683 5682 5680 5679 5680
5743 5739 5738 5737 5744 5745 5734 5724 5731 5739 5742 5739 5737 5734 5732 5727 5723 5721 5719 5718 5717 5715 5715 5714 5712 5711 5709 5708 5707 5704 5701 5698 5695 5694 5693 5693 5692 5691 5690 5688 5686 5685 5683 5681 5680 5679 5677 5674 5676
5734 5745 5742 5737 5727 5723 5729 5706 5723 5730 5728 5730 5729 5728 5726 5724 5721 5717 5715 5712 5711 5710 5710 5710 5708 5706 5705 5704 5700 5696 5692 5689 5688 5688 5688 5688 5687 5686 5685 5683 5682 5681 5680 5678 5677 5677 5675 5673 5670
5737 5745 5739 5734 5726 5719 5728 5715 5718 5728 5718 5722 5724 5723 5722 5720 5717 5713 5710 5709 5707 5706 5704 5703 5701 5700 5699 5698 5696 5692 5688 5687 5686 5685 5683 5682 5681 5681 5680 5679 5678 5677 5676 5675 5674 5673 5672 5671 5668
5742 5737 5734 5731 5722 5704 5722 5716 5710 5720 5721 5721 5722 5721 5718 5716 5713 5710 5707 5704 5702 5701 5699 5697 5694 5693 5693 5692 5690 5687 5684 5682 5680 5678 5677 5676 5676 5676 5675 5674 5673 5672 5671 5670 5670 5669 5668 5668 5667
5733 5716 5701 5699 5695 5704 5731 5720 5710 5725 5731 5726 5720 5716 5715 5712 5708 5704 5700 5698 5696 5694 5693 5691 5689 5687 5687 5686 5685 5683 5680 5678 5676 5674 5672 5671 5670 5669 5669 5669 5669 5668 5667 5666 5666 5665 5664 5664 5663
5724 5717 5694 5684 5693 5707 5721 5711 5712 5728 5729 5726 5720 5715 5710 5706 5703 5699 5696 5693 5691 5689 5687 5685 5683 5681 5681 5680 5679 5678 5676 5674 5672 5670 5669 5667 5666 5666 5666 5665 5664 5664 5663 5662 5662 5661 5660 5660 5658
5716 5715 5720 5704 5703 5697 5709 5712 5713 5721 5718 5715 5711 5707 5703 5699 5698 5695 5692 5689 5686 5684 5682 5681 5678 5676 5675 5674 5673 5672 5671 5669 5668 5667 5666 5665 5664 5663 5663 5661 5660 5659 5659 5658 5657 5656 5655 5655 5654
5721 5716 5708 5696 5683 5681 5699 5704 5696 5701 5703 5705 5703 5699 5697 5694 5693 5691 5688 5684 5682 5680 5677 5676 5674 5671 5669 5668 5668 5667 5665 5665 5664 5663 5662 5661 5660 5659 5658 5657 5656 5654 5654 5653 5652 5651 5651 5650 5649
5710 5706 5702 5697 5695 5678 5675 5685 5710 5706 5705 5701 5698 5696 5693 5689 5686 5684 5682 5680 5677 5675 5672 5670 5668 5666 5664 5663 5662 5661 5660 5659 5659 5658 5657 5656 5656 5654 5653 5652 5650 5649 5648 5648 5647 5646 5645 5644 5644
5712 5705 5698 5681 5682 5686 5676 5679 5712 5709 5706 5700 5695 5692 5689 5686 5683 5680 5677 5675 5672 5668 5666 5664 5662 5660 5658 5657 5657 5655 5654 5653 5652 5651 5652 5651 5650 5649 5648 5647 5645 5644 5643 5642 5641 5640 5640 5639 5638